TimeEST,TemperatureF,Dew PointF,Humidity,Sea Level PressureIn,VisibilityMPH,Wind Direction,Wind SpeedMPH,Gust SpeedMPH,PrecipitationIn,Events,Conditions,WindDirDegrees,DateUTC
12:15 AM,21.6,15.4,77,30.12,10.0,East,19.6,23.0,N/A,,Overcast,100,2013-02-22 05:15:00
12:35 AM,21.7,15.6,77,30.12,10.0,ESE,16.1,26.5,N/A,,Overcast,120,2013-02-22 05:35:00
12:54 AM,21.9,15.8,77,30.10,10.0,ESE,17.3,25.3,N/A,,Overcast,110,2013-02-22 05:54:00
1:15 AM,22.5,16.3,77,30.11,10.0,ESE,19.6,26.5,N/A,,Overcast,110,2013-02-22 06:15:00
1:35 AM,22.6,16.2,76,30.10,10.0,ESE,15.0,26.5,N/A,,Overcast,120,2013-02-22 06:35:00
1:54 AM,22.8,16.0,75,30.10,10.0,ESE,19.6,26.5,N/A,,Overcast,120,2013-02-22 06:54:00
2:15 AM,23.0,16.2,75,30.07,10.0,ESE,16.1,23.0,N/A,,Overcast,110,2013-02-22 07:15:00
2:35 AM,23.0,16.7,77,30.04,5.0,East,16.1,23.0,N/A,Snow,Light Snow,100,2013-02-22 07:35:00
2:54 AM,23.0,17.4,79,30.02,4.0,East,17.3,25.3,N/A,Snow,Light Snow,90,2013-02-22 07:54:00
3:15 AM,23.0,17.8,80,30.02,4.0,East,16.1,26.5,N/A,,Haze,90,2013-02-22 08:15:00
3:34 AM,23.0,18.3,82,30.00,1.8,East,17.3,25.3,N/A,Snow,Light Snow,90,2013-02-22 08:34:00
3:55 AM,23.0,19.2,85,29.99,1.5,East,13.8,19.6,N/A,Snow,Light Snow,100,2013-02-22 08:55:00
4:15 AM,22.8,19.4,87,29.98,1.0,East,12.7,18.4,N/A,Snow,Light Snow,100,2013-02-22 09:15:00
4:34 AM,22.8,19.8,88,29.96,1.0,East,16.1,23.0,N/A,Snow,Light Snow,80,2013-02-22 09:34:00
4:55 AM,22.8,19.9,89,29.95,0.8,East,13.8,20.7,N/A,Snow,Snow,100,2013-02-22 09:55:00
5:14 AM,23.0,20.3,89,29.95,1.0,East,12.7,18.4,N/A,Snow,Snow,100,2013-02-22 10:14:00
5:35 AM,23.0,20.3,89,29.93,1.0,East,15.0,-,N/A,Snow,Light Snow,90,2013-02-22 10:35:00
5:55 AM,23.4,20.7,89,29.92,1.5,East,11.5,19.6,N/A,Snow,Light Snow,100,2013-02-22 10:55:00
6:14 AM,23.7,21.0,89,29.93,1.5,ESE,16.1,19.6,N/A,Snow,Light Snow,110,2013-02-22 11:14:00
6:35 AM,23.7,20.8,89,29.93,1.8,ESE,11.5,16.1,N/A,Snow,Light Snow,110,2013-02-22 11:35:00
7:15 AM,23.5,21.0,90,29.93,0.8,ESE,9.2,-,N/A,Snow,Snow,120,2013-02-22 12:15:00
7:54 AM,23.4,20.7,89,29.92,1.2,ESE,10.4,-,N/A,Snow,Light Snow,110,2013-02-22 12:54:00
8:15 AM,23.5,20.8,89,29.92,1.0,ESE,6.9,-,N/A,Snow,Light Snow,120,2013-02-22 13:15:00
8:54 AM,23.7,21.0,89,29.91,1.0,ESE,8.1,-,N/A,Snow,Light Snow,110,2013-02-22 13:54:00
9:54 AM,24.6,21.0,86,29.88,10.0,ESE,6.9,-,N/A,,Overcast,120,2013-02-22 14:54:00
10:34 AM,25.3,21.7,86,29.87,10.0,SE,5.8,-,N/A,,Overcast,130,2013-02-22 15:34:00
10:55 AM,25.7,22.1,86,29.87,10.0,ESE,9.2,-,N/A,,Overcast,120,2013-02-22 15:55:00
11:15 AM,26.2,22.6,86,29.87,10.0,SE,5.8,-,N/A,,Overcast,130,2013-02-22 16:15:00
11:34 AM,26.6,23.0,86,29.88,10.0,ESE,5.8,-,N/A,,Overcast,120,2013-02-22 16:34:00
11:55 AM,27.3,23.7,86,29.88,10.0,SE,6.9,-,N/A,,Overcast,130,2013-02-22 16:55:00
12:14 PM,27.5,24.3,88,29.87,7.0,SE,8.1,-,N/A,,Overcast,130,2013-02-22 17:14:00
12:35 PM,27.9,24.6,88,29.87,7.0,SE,6.9,-,N/A,,Overcast,140,2013-02-22 17:35:00
12:54 PM,28.6,25.3,88,29.86,7.0,SE,5.8,-,N/A,,Overcast,140,2013-02-22 17:54:00
1:35 PM,29.7,26.4,88,29.85,7.0,South,8.1,-,N/A,,Overcast,170,2013-02-22 18:35:00
1:54 PM,29.7,26.6,88,29.85,4.0,South,9.2,-,N/A,,Overcast,170,2013-02-22 18:54:00
2:15 PM,30.0,27.1,89,29.85,5.0,South,5.8,-,N/A,,Overcast,180,2013-02-22 19:15:00
2:35 PM,30.2,27.5,90,29.85,3.0,South,6.9,-,N/A,,Overcast,170,2013-02-22 19:35:00
2:54 PM,30.6,28.0,90,29.85,3.0,South,5.8,-,N/A,,Overcast,180,2013-02-22 19:54:00
3:15 PM,31.5,29.1,91,29.84,1.8,South,5.8,-,N/A,,Overcast,170,2013-02-22 20:15:00
3:35 PM,31.6,29.7,92,29.84,1.0,South,8.1,-,N/A,,Overcast,180,2013-02-22 20:35:00
6:34 PM,32.9,31.5,94,29.86,4.0,SW,8.1,-,N/A,,Overcast,220,2013-02-22 23:34:00
6:55 PM,32.9,31.1,93,29.87,3.0,SW,9.2,-,N/A,Snow,Light Snow,220,2013-02-22 23:55:00
7:14 PM,32.9,31.1,93,29.87,7.0,SW,6.9,16.1,N/A,,Overcast,230,2013-02-23 00:14:00
7:35 PM,32.9,30.7,92,29.87,7.0,SW,8.1,17.3,N/A,,Overcast,230,2013-02-23 00:35:00
7:55 PM,32.9,30.2,90,29.88,10.0,SW,8.1,16.1,N/A,,Overcast,230,2013-02-23 00:55:00
8:14 PM,32.9,29.5,87,29.88,10.0,SW,10.4,-,N/A,,Overcast,220,2013-02-23 01:14:00
8:35 PM,32.9,28.8,85,29.88,10.0,SW,9.2,-,N/A,,Overcast,230,2013-02-23 01:35:00
8:54 PM,32.5,28.2,84,29.88,10.0,WSW,11.5,-,N/A,,Overcast,240,2013-02-23 01:54:00
9:15 PM,32.5,28.0,83,29.88,10.0,WSW,5.8,-,N/A,,Overcast,250,2013-02-23 02:15:00
9:34 PM,32.2,27.9,84,29.88,10.0,WSW,6.9,-,N/A,,Overcast,240,2013-02-23 02:34:00
9:55 PM,32.0,27.5,83,29.89,10.0,WSW,9.2,-,N/A,,Overcast,240,2013-02-23 02:55:00
10:15 PM,32.0,26.4,80,29.90,10.0,WSW,9.2,16.1,N/A,,Overcast,240,2013-02-23 03:15:00
10:34 PM,32.0,25.9,78,29.90,10.0,WSW,10.4,-,N/A,,Overcast,240,2013-02-23 03:34:00
10:55 PM,31.8,25.5,78,29.90,10.0,WSW,6.9,-,N/A,,Overcast,240,2013-02-23 03:55:00
11:15 PM,31.3,24.6,76,29.90,10.0,WSW,8.1,-,N/A,,Overcast,250,2013-02-23 04:15:00
11:34 PM,30.9,22.6,71,29.90,10.0,WSW,10.4,19.6,N/A,,Overcast,240,2013-02-23 04:34:00
11:55 PM,30.6,22.5,72,29.89,10.0,WSW,8.1,-,N/A,,Overcast,250,2013-02-23 04:55:00